QPF
0.04 0.05 0.06 0.05 0.07 0.07 0.05 0.04 0.05 0.03 0.02 0.03 0.02 0.01 0.01 0.01 0.00 0.00 0.01 0.01 0.02 0.01 0.02 0.02 0.02 0.03 0.03 0.04 0.07 0.08 0.09 0.10 0.14 0.13 0.12 0.11 0.10 0.09 0.06 0.04 0.03 0.03 0.02 0.01
0.04 0.04 0.03 0.03 0.05 0.05 0.05 0.05 0.05 0.04 0.03 0.03 0.02 0.01 0.01 0.01 0.00 0.00 0.00 0.01 0.01 0.02 0.02 0.01 0.02 0.02 0.02 0.02 0.03 0.04 0.07 0.11 0.11 0.07 0.07 0.10 0.13 0.12 0.11 0.10 0.07 0.04 0.03 0.03
0.04 0.03 0.02 0.03 0.05 0.04 0.05 0.07 0.05 0.04 0.03 0.03 0.03 0.02 0.02 0.01 0.01 0.00 0.00 0.01 0.01 0.01 0.01 0.01 0.00 0.01 0.02 0.02 0.02 0.03 0.06 0.07 0.08 0.08 0.10 0.12 0.14 0.14 0.12 0.10 0.09 0.07 0.07 0.06
0.03 0.02 0.02 0.03 0.04 0.03 0.04 0.05 0.04 0.03 0.05 0.05 0.04 0.03 0.01 0.01 0.00 0.00 0.00 0.01 0.01 0.00 0.00 0.01 0.01 0.01 0.01 0.02 0.03 0.03 0.06 0.06 0.06 0.07 0.06 0.07 0.10 0.10 0.10 0.10 0.12 0.12 0.10 0.08
0.03 0.02 0.03 0.03 0.03 0.02 0.04 0.04 0.04 0.04 0.05 0.05 0.03 0.02 0.01 0.01 0.00 0.00 0.00 0.00 0.00 0.00 0.00 0.00 0.01 0.01 0.01 0.02 0.02 0.03 0.02 0.03 0.04 0.05 0.05 0.05 0.06 0.10 0.12 0.11 0.09 0.09 0.09 0.09
0.03 0.02 0.03 0.03 0.03 0.03 0.04 0.05 0.05 0.05 0.07 0.07 0.02 0.01 0.01 0.00 0.00 0.00 0.00 0.00 0.00 0.00 0.00 0.00 0.00 0.01 0.01 0.01 0.01 0.03 0.03 0.02 0.03 0.04 0.04 0.04 0.04 0.05 0.06 0.07 0.09 0.08 0.07 0.07
0.04 0.03 0.02 0.02 0.04 0.04 0.05 0.08 0.10 0.11 0.10 0.05 0.01 0.01 0.00 0.00 0.00 0.00 0.00 0.00 0.00 0.00 0.00 0.00 0.00 0.00 0.00 0.01 0.01 0.01 0.02 0.02 0.02 0.03 0.03 0.04 0.04 0.05 0.05 0.05 0.06 0.06 0.06 0.06
0.05 0.04 0.02 0.02 0.04 0.06 0.06 0.07 0.08 0.08 0.05 0.02 0.01 0.01 0.01 0.00 0.00 0.00 0.00 0.00 0.00 0.00 0.00 0.00 0.00 0.00 0.01 0.01 0.01 0.01 0.01 0.02 0.02 0.02 0.02 0.03 0.03 0.03 0.04 0.04 0.04 0.04 0.04 0.05
0.05 0.04 0.02 0.01 0.03 0.05 0.07 0.05 0.04 0.06 0.04 0.02 0.01 0.01 0.01 0.00 0.00 0.00 0.00 0.00 0.00 0.00 0.00 0.00 0.00 0.00 0.00 0.00 0.00 0.00 0.01 0.01 0.02 0.02 0.02 0.02 0.02 0.02 0.03 0.03 0.03 0.03 0.04 0.04
0.06 0.05 0.02 0.02 0.02 0.03 0.04 0.03 0.03 0.05 0.05 0.04 0.02 0.01 0.00 0.00 0.00 0.00 0.00 0.00 0.00 0.00 0.00 0.00 0.00 0.00 0.00 0.00 0.00 0.00 0.00 0.00 0.01 0.02 0.02 0.02 0.02 0.02 0.02 0.02 0.02 0.02 0.02 0.02
0.04 0.04 0.04 0.02 0.02 0.02 0.02 0.02 0.02 0.04 0.04 0.06 0.04 0.02 0.00 0.00 0.00 0.00 0.00 0.00 0.00 0.00 0.00 0.00 0.00 0.00 0.00 0.00 0.00 0.00 0.00 0.00 0.00 0.01 0.01 0.01 0.01 0.01 0.01 0.02 0.01 0.01 0.01 0.01
0.03 0.03 0.03 0.02 0.01 0.01 0.02 0.02 0.02 0.04 0.04 0.04 0.05 0.03 0.01 0.00 0.00 0.00 0.00 0.00 0.00 0.00 0.00 0.00 0.00 0.00 0.00 0.00 0.00 0.00 0.00 0.00 0.00 0.00 0.00 0.01 0.01 0.01 0.01 0.01 0.01 0.01 0.01 0.01
0.04 0.04 0.04 0.04 0.03 0.02 0.03 0.02 0.02 0.02 0.03 0.04 0.05 0.03 0.01 0.01 0.00 0.00 0.00 0.00 0.00 0.00 0.00 0.00 0.00 0.00 0.00 0.00 0.00 0.01 0.01 0.00 0.00 0.00 0.00 0.01 0.01 0.01 0.01 0.01 0.01 0.01 0.01 0.00
0.03 0.04 0.06 0.06 0.04 0.03 0.04 0.03 0.02 0.03 0.05 0.05 0.04 0.03 0.01 0.01 0.00 0.00 0.00 0.00 0.00 0.00 0.00 0.00 0.00 0.00 0.00 0.00 0.00 0.00 0.01 0.01 0.01 0.01 0.00 0.01 0.01 0.01 0.01 0.01 0.00 0.01 0.00 0.00
0.02 0.03 0.03 0.03 0.02 0.03 0.03 0.04 0.03 0.03 0.02 0.04 0.02 0.02 0.01 0.00 0.00 0.00 0.00 0.00 0.00 0.00 0.00 0.00 0.00 0.00 0.00 0.00 0.00 0.00 0.00 0.00 0.01 0.01 0.01 0.01 0.00 0.00 0.00 0.00 0.00 0.00 0.00 0.00
0.01 0.02 0.02 0.02 0.01 0.02 0.03 0.04 0.04 0.03 0.03 0.03 0.03 0.02 0.01 0.01 0.01 0.00 0.00 0.00 0.01 0.00 0.00 0.00 0.00 0.00 0.00 0.00 0.00 0.00 0.00 0.00 0.00 0.00 0.00 0.00 0.00 0.00 0.00 0.00 0.00 0.00 0.00 0.00
0.01 0.01 0.02 0.01 0.01 0.02 0.03 0.03 0.04 0.04 0.04 0.04 0.04 0.03 0.02 0.02 0.02 0.02 0.02 0.02 0.01 0.00 0.00 0.00 0.00 0.00 0.00 0.00 0.00 0.00 0.00 0.00 0.00 0.00 0.00 0.00 0.00 0.00 0.00 0.00 0.00 0.00 0.00 0.00
0.00 0.00 0.01 0.01 0.01 0.02 0.02 0.01 0.02 0.03 0.04 0.03 0.04 0.03 0.03 0.03 0.03 0.02 0.01 0.01 0.01 0.00 0.00 0.00 0.00 0.00 0.00 0.00 0.00 0.00 0.00 0.00 0.00 0.00 0.00 0.00 0.00 0.00 0.00 0.00 0.00 0.00 0.00 0.00
0.00 0.01 0.01 0.01 0.01 0.01 0.01 0.00 0.01 0.03 0.05 0.04 0.04 0.03 0.03 0.03 0.02 0.02 0.01 0.01 0.01 0.00 0.00 0.00 0.00 0.00 0.00 0.00 0.00 0.00 0.00 0.00 0.00 0.00 0.00 0.00 0.00 0.00 0.00 0.00 0.00 0.00 0.00 0.00
0.00 0.00 0.01 0.01 0.02 0.02 0.01 0.00 0.00 0.02 0.05 0.03 0.03 0.03 0.04 0.03 0.03 0.02 0.01 0.01 0.00 0.00 0.00 0.00 0.00 0.00 0.00 0.00 0.00 0.00 0.00 0.00 0.00 0.00 0.00 0.00 0.00 0.00 0.00 0.00 0.00 0.00 0.00 0.00
0.01 0.01 0.01 0.01 0.02 0.01 0.01 0.01 0.01 0.04 0.06 0.03 0.02 0.03 0.03 0.03 0.03 0.02 0.01 0.01 0.00 0.00 0.00 0.00 0.00 0.00 0.00 0.00 0.00 0.00 0.00 0.00 0.00 0.00 0.00 0.00 0.00 0.00 0.00 0.00 0.00 0.00 0.00 0.00
0.01 0.01 0.01 0.01 0.02 0.03 0.02 0.02 0.03 0.03 0.02 0.01 0.02 0.02 0.02 0.02 0.02 0.01 0.01 0.01 0.00 0.00 0.00 0.00 0.00 0.00 0.00 0.00 0.00 0.00 0.00 0.00 0.00 0.00 0.00 0.00 0.00 0.00 0.00 0.00 0.00 0.00 0.00 0.00
0.01 0.01 0.02 0.02 0.03 0.03 0.03 0.03 0.03 0.02 0.01 0.01 0.01 0.01 0.01 0.02 0.01 0.01 0.01 0.00 0.00 0.00 0.00 0.00 0.00 0.00 0.00 0.00 0.00 0.00 0.00 0.00 0.00 0.00 0.01 0.00 0.00 0.00 0.00 0.00 0.00 0.00 0.00 0.00
0.00 0.00 0.01 0.01 0.02 0.02 0.02 0.01 0.02 0.02 0.01 0.01 0.01 0.01 0.01 0.01 0.01 0.01 0.01 0.01 0.00 0.00 0.00 0.00 0.00 0.00 0.00 0.00 0.00 0.00 0.00 0.00 0.00 0.00 0.00 0.01 0.01 0.01 0.00 0.00 0.00 0.00 0.00 0.00
0.00 0.00 0.01 0.02 0.02 0.01 0.01 0.01 0.01 0.01 0.01 0.00 0.01 0.01 0.01 0.01 0.01 0.01 0.01 0.01 0.01 0.01 0.00 0.00 0.01 0.01 0.01 0.01 0.01 0.01 0.01 0.01 0.01 0.01 0.01 0.00 0.00 0.01 0.01 0.01 0.01 0.01 0.00 0.01
0.01 0.01 0.02 0.02 0.01 0.01 0.01 0.01 0.01 0.01 0.01 0.01 0.01 0.00 0.00 0.00 0.00 0.00 0.01 0.01 0.02 0.01 0.01 0.00 0.00 0.00 0.00 0.01 0.01 0.01 0.01 0.01 0.01 0.01 0.01 0.00 0.01 0.01 0.01 0.01 0.01 0.01 0.01 0.01
MSLP
1012.95 1012.96 1012.87 1012.68 1012.40 1012.07 1011.73 1011.42 1011.16 1010.96 1010.79 1010.62 1010.44 1010.21 1009.92 1009.57 1009.19 1008.82 1008.51 1008.29 1008.19 1008.22 1008.38 1008.65 1008.99 1009.38 1009.81 1010.26 1010.72 1011.22 1011.78 1012.38 1013.04 1013.73 1014.45 1015.15 1015.80 1016.37 1016.85 1017.22 1017.49 1017.70 1017.87 1018.04
1012.67 1012.63 1012.50 1012.29 1012.00 1011.68 1011.35 1011.06 1010.82 1010.63 1010.49 1010.36 1010.22 1010.03 1009.80 1009.51 1009.19 1008.87 1008.59 1008.38 1008.27 1008.28 1008.39 1008.60 1008.90 1009.26 1009.67 1010.12 1010.63 1011.18 1011.80 1012.48 1013.21 1013.96 1014.71 1015.43 1016.08 1016.63 1017.07 1017.40 1017.64 1017.80 1017.94 1018.06
1012.55 1012.46 1012.31 1012.09 1011.81 1011.51 1011.21 1010.94 1010.71 1010.53 1010.38 1010.24 1010.10 1009.92 1009.70 1009.44 1009.16 1008.88 1008.63 1008.45 1008.34 1008.34 1008.43 1008.61 1008.87 1009.21 1009.60 1010.07 1010.59 1011.19 1011.86 1012.58 1013.35 1014.13 1014.89 1015.60 1016.22 1016.74 1017.15 1017.45 1017.66 1017.81 1017.92 1018.02
1012.66 1012.53 1012.36 1012.15 1011.91 1011.64 1011.38 1011.13 1010.90 1010.69 1010.50 1010.31 1010.10 1009.87 1009.62 1009.35 1009.07 1008.81 1008.60 1008.45 1008.37 1008.38 1008.48 1008.66 1008.91 1009.23 1009.63 1010.09 1010.63 1011.24 1011.92 1012.66 1013.42 1014.19 1014.93 1015.61 1016.19 1016.67 1017.05 1017.33 1017.53 1017.68 1017.79 1017.90
1012.95 1012.80 1012.64 1012.46 1012.26 1012.04 1011.81 1011.57 1011.32 1011.06 1010.79 1010.50 1010.19 1009.86 1009.52 1009.20 1008.90 1008.66 1008.48 1008.38 1008.36 1008.42 1008.55 1008.76 1009.02 1009.35 1009.74 1010.20 1010.72 1011.32 1011.98 1012.69 1013.42 1014.14 1014.83 1015.45 1015.98 1016.42 1016.77 1017.05 1017.26 1017.43 1017.58 1017.73
1013.33 1013.19 1013.05 1012.91 1012.76 1012.59 1012.39 1012.16 1011.88 1011.54 1011.16 1010.74 1010.29 1009.82 1009.38 1008.98 1008.65 1008.41 1008.28 1008.24 1008.30 1008.44 1008.65 1008.91 1009.22 1009.56 1009.95 1010.39 1010.89 1011.44 1012.05 1012.70 1013.36 1014.01 1014.62 1015.18 1015.66 1016.06 1016.40 1016.68 1016.92 1017.14 1017.35 1017.55
1013.66 1013.55 1013.45 1013.36 1013.26 1013.14 1012.97 1012.73 1012.41 1012.00 1011.51 1010.94 1010.34 1009.74 1009.18 1008.70 1008.34 1008.12 1008.03 1008.08 1008.24 1008.49 1008.79 1009.13 1009.49 1009.86 1010.26 1010.67 1011.13 1011.63 1012.16 1012.73 1013.31 1013.87 1014.40 1014.89 1015.32 1015.69 1016.02 1016.32 1016.61 1016.88 1017.16 1017.43
1013.85 1013.77 1013.71 1013.66 1013.61 1013.53 1013.39 1013.15 1012.80 1012.32 1011.73 1011.05 1010.32 1009.60 1008.94 1008.41 1008.03 1007.83 1007.82 1007.96 1008.23 1008.59 1009.00 1009.43 1009.85 1010.26 1010.65 1011.05 1011.46 1011.89 1012.35 1012.83 1013.32 1013.80 1014.26 1014.69 1015.08 1015.44 1015.77 1016.09 1016.42 1016.75 1017.09 1017.42
1013.82 1013.76 1013.74 1013.73 1013.72 1013.67 1013.55 1013.33 1012.96 1012.44 1011.79 1011.03 1010.23 1009.44 1008.73 1008.16 1007.79 1007.64 1007.69 1007.93 1008.31 1008.78 1009.29 1009.80 1010.28 1010.72 1011.12 1011.49 1011.86 1012.23 1012.63 1013.04 1013.46 1013.87 1014.28 1014.66 1015.02 1015.37 1015.71 1016.05 1016.41 1016.78 1017.17 1017.55
1013.60 1013.54 1013.52 1013.53 1013.54 1013.53 1013.44 1013.23 1012.88 1012.36 1011.70 1010.93 1010.11 1009.30 1008.58 1008.04 1007.70 1007.59 1007.71 1008.03 1008.50 1009.06 1009.65 1010.22 1010.75 1011.21 1011.62 1011.98 1012.32 1012.65 1012.99 1013.35 1013.73 1014.10 1014.48 1014.84 1015.19 1015.53 1015.88 1016.23 1016.61 1017.00 1017.40 1017.79
1013.25 1013.17 1013.13 1013.13 1013.15 1013.14 1013.08 1012.91 1012.60 1012.13 1011.52 1010.79 1010.02 1009.25 1008.58 1008.08 1007.79 1007.74 1007.92 1008.29 1008.81 1009.42 1010.06 1010.66 1011.21 1011.69 1012.10 1012.45 1012.78 1013.09 1013.42 1013.76 1014.12 1014.48 1014.85 1015.21 1015.55 1015.90 1016.24 1016.59 1016.96 1017.34 1017.73 1018.11
1012.88 1012.76 1012.68 1012.65 1012.64 1012.64 1012.60 1012.47 1012.22 1011.83 1011.31 1010.68 1009.99 1009.32 1008.74 1008.30 1008.07 1008.06 1008.27 1008.66 1009.20 1009.81 1010.45 1011.06 1011.61 1012.09 1012.50 1012.86 1013.19 1013.51 1013.84 1014.19 1014.56 1014.93 1015.31 1015.68 1016.03 1016.38 1016.71 1017.05 1017.39 1017.74 1018.10 1018.44
1012.60 1012.41 1012.27 1012.18 1012.14 1012.12 1012.09 1012.00 1011.82 1011.53 1011.12 1010.62 1010.06 1009.50 1009.01 1008.66 1008.47 1008.49 1008.70 1009.08 1009.58 1010.17 1010.77 1011.36 1011.89 1012.36 1012.78 1013.15 1013.50 1013.84 1014.20 1014.58 1014.98 1015.38 1015.77 1016.16 1016.52 1016.87 1017.19 1017.51 1017.82 1018.13 1018.43 1018.73
1012.46 1012.20 1011.98 1011.83 1011.73 1011.68 1011.65 1011.59 1011.47 1011.27 1010.98 1010.60 1010.18 1009.74 1009.36 1009.07 1008.93 1008.94 1009.13 1009.46 1009.91 1010.43 1010.97 1011.51 1012.02 1012.48 1012.90 1013.29 1013.67 1014.06 1014.46 1014.87 1015.30 1015.74 1016.16 1016.57 1016.94 1017.28 1017.60 1017.90 1018.18 1018.45 1018.70 1018.94
1012.49 1012.15 1011.86 1011.62 1011.46 1011.36 1011.30 1011.25 1011.18 1011.05 1010.86 1010.61 1010.30 1009.98 1009.69 1009.46 1009.34 1009.35 1009.49 1009.76 1010.12 1010.56 1011.04 1011.52 1011.99 1012.44 1012.87 1013.29 1013.71 1014.14 1014.58 1015.04 1015.51 1015.97 1016.42 1016.84 1017.22 1017.57 1017.88 1018.16 1018.42 1018.66 1018.89 1019.10
1012.65 1012.25 1011.88 1011.57 1011.33 1011.17 1011.06 1011.00 1010.94 1010.86 1010.75 1010.59 1010.38 1010.16 1009.94 1009.76 1009.66 1009.65 1009.74 1009.94 1010.23 1010.59 1010.99 1011.42 1011.86 1012.31 1012.75 1013.19 1013.64 1014.11 1014.59 1015.08 1015.58 1016.06 1016.53 1016.96 1017.35 1017.71 1018.02 1018.31 1018.56 1018.80 1019.01 1019.21
1012.90 1012.45 1012.02 1011.64 1011.32 1011.08 1010.92 1010.82 1010.75 1010.69 1010.62 1010.53 1010.40 1010.25 1010.10 1009.96 1009.87 1009.85 1009.90 1010.04 1010.26 1010.55 1010.90 1011.29 1011.70 1012.14 1012.59 1013.06 1013.54 1014.03 1014.53 1015.04 1015.55 1016.05 1016.52 1016.96 1017.36 1017.73 1018.06 1018.36 1018.63 1018.88 1019.10 1019.30
1013.22 1012.73 1012.25 1011.80 1011.41 1011.09 1010.86 1010.70 1010.60 1010.54 1010.50 1010.44 1010.37 1010.29 1010.19 1010.09 1010.02 1010.00 1010.03 1010.13 1010.31 1010.55 1010.86 1011.21 1011.61 1012.04 1012.49 1012.96 1013.45 1013.95 1014.46 1014.97 1015.48 1015.96 1016.43 1016.88 1017.29 1017.67 1018.02 1018.35 1018.65 1018.93 1019.18 1019.40
1013.60 1013.10 1012.57 1012.06 1011.60 1011.21 1010.90 1010.68 1010.54 1010.46 1010.41 1010.39 1010.36 1010.32 1010.28 1010.23 1010.20 1010.19 1010.22 1010.31 1010.47 1010.68 1010.96 1011.29 1011.66 1012.07 1012.51 1012.97 1013.45 1013.94 1014.43 1014.92 1015.40 1015.87 1016.33 1016.77 1017.19 1017.59 1017.96 1018.32 1018.65 1018.96 1019.24 1019.48
1014.09 1013.56 1013.00 1012.44 1011.92 1011.46 1011.08 1010.80 1010.61 1010.50 1010.44 1010.43 1010.44 1010.45 1010.46 1010.46 1010.48 1010.51 1010.56 1010.66 1010.81 1011.01 1011.27 1011.57 1011.91 1012.30 1012.70 1013.13 1013.56 1014.01 1014.46 1014.91 1015.36 1015.80 1016.24 1016.67 1017.09 1017.50 1017.90 1018.28 1018.64 1018.97 1019.27 1019.52
1014.71 1014.17 1013.58 1012.98 1012.41 1011.88 1011.44 1011.10 1010.86 1010.72 1010.66 1010.65 1010.68 1010.74 1010.80 1010.86 1010.93 1011.00 1011.10 1011.22 1011.37 1011.56 1011.80 1012.07 1012.37 1012.70 1013.05 1013.41 1013.79 1014.17 1014.56 1014.95 1015.35 1015.76 1016.17 1016.58 1017.00 1017.41 1017.82 1018.22 1018.59 1018.93 1019.23 1019.49
1015.50 1014.94 1014.33 1013.70 1013.09 1012.52 1012.02 1011.63 1011.35 1011.17 1011.09 1011.08 1011.13 1011.21 1011.32 1011.44 1011.56 1011.68 1011.81 1011.96 1012.12 1012.30 1012.51 1012.74 1012.98 1013.25 1013.52 1013.80 1014.10 1014.40 1014.71 1015.03 1015.37 1015.73 1016.11 1016.50 1016.90 1017.31 1017.71 1018.10 1018.47 1018.80 1019.09 1019.33
1016.42 1015.86 1015.24 1014.59 1013.95 1013.35 1012.81 1012.38 1012.05 1011.83 1011.72 1011.70 1011.75 1011.85 1011.99 1012.15 1012.31 1012.48 1012.65 1012.81 1012.98 1013.15 1013.33 1013.50 1013.68 1013.87 1014.05 1014.24 1014.43 1014.64 1014.86 1015.11 1015.39 1015.69 1016.03 1016.39 1016.76 1017.15 1017.54 1017.91 1018.25 1018.56 1018.82 1019.03
1017.41 1016.85 1016.24 1015.59 1014.94 1014.32 1013.75 1013.28 1012.91 1012.65 1012.50 1012.45 1012.48 1012.59 1012.74 1012.91 1013.11 1013.31 1013.50 1013.69 1013.86 1014.02 1014.16 1014.28 1014.39 1014.49 1014.57 1014.66 1014.75 1014.86 1015.00 1015.17 1015.38 1015.62 1015.91 1016.23 1016.57 1016.93 1017.28 1017.62 1017.93 1018.20 1018.42 1018.60
1018.35 1017.82 1017.22 1016.59 1015.95 1015.32 1014.74 1014.23 1013.82 1013.52 1013.32 1013.22 1013.22 1013.30 1013.45 1013.63 1013.84 1014.06 1014.27 1014.47 1014.65 1014.79 1014.90 1014.98 1015.03 1015.05 1015.05 1015.04 1015.04 1015.05 1015.10 1015.19 1015.33 1015.51 1015.75 1016.02 1016.32 1016.64 1016.95 1017.24 1017.51 1017.74 1017.92 1018.07
1019.11 1018.62 1018.07 1017.48 1016.86 1016.25 1015.66 1015.13 1014.68 1014.32 1014.06 1013.91 1013.87 1013.91 1014.03 1014.20 1014.42 1014.65 1014.88 1015.09 1015.28 1015.42 1015.52 1015.56 1015.56 1015.52 1015.45 1015.36 1015.27 1015.21 1015.17 1015.18 1015.25 1015.38 1015.55 1015.77 1016.02 1016.29 1016.56 1016.80 1017.02 1017.20 1017.35 1017.46
Thickness
5492 5492 5495 5504 5510 5517 5522 5528 5536 5549 5560 5563 5567 5575 5587 5599 5607 5615 5623 5631 5638 5647 5657 5663 5668 5673 5676 5679 5682 5684 5685 5686 5685 5683 5682 5681 5680 5681 5681 5681 5680 5680 5679 5679
5486 5487 5499 5507 5510 5515 5518 5521 5530 5543 5553 5557 5561 5570 5582 5593 5602 5611 5619 5627 5634 5641 5648 5655 5661 5665 5668 5671 5674 5677 5679 5680 5679 5679 5678 5678 5676 5675 5675 5675 5674 5674 5674 5673
5484 5491 5500 5503 5505 5510 5514 5517 5526 5533 5544 5551 5552 5558 5572 5587 5599 5608 5617 5625 5632 5637 5642 5648 5653 5657 5660 5663 5667 5670 5673 5674 5674 5673 5672 5671 5669 5667 5667 5667 5667 5668 5667 5666
5486 5493 5498 5499 5502 5509 5509 5519 5526 5530 5529 5533 5544 5542 5567 5583 5591 5601 5611 5619 5626 5634 5639 5643 5647 5650 5654 5657 5660 5663 5665 5667 5667 5667 5665 5663 5661 5660 5661 5662 5661 5661 5660 5660
5485 5491 5494 5495 5500 5508 5510 5519 5523 5527 5525 5525 5537 5537 5561 5580 5585 5597 5608 5616 5623 5629 5634 5638 5642 5644 5647 5649 5652 5655 5657 5658 5659 5660 5659 5657 5656 5656 5656 5656 5654 5653 5653 5652
5486 5491 5494 5496 5500 5504 5509 5513 5516 5519 5516 5514 5534 5537 5554 5577 5589 5600 5608 5614 5618 5623 5627 5631 5635 5637 5638 5640 5642 5645 5647 5649 5651 5652 5651 5650 5649 5648 5646 5646 5646 5645 5644 5644
5485 5488 5493 5496 5494 5498 5501 5499 5498 5500 5502 5516 5544 5543 5557 5584 5595 5601 5605 5610 5614 5617 5620 5622 5625 5627 5629 5631 5633 5635 5637 5639 5641 5642 5642 5642 5641 5640 5639 5638 5637 5636 5635 5634
5482 5483 5492 5494 5494 5494 5496 5496 5497 5502 5508 5523 5541 5542 5561 5583 5590 5596 5600 5604 5606 5609 5612 5614 5617 5619 5620 5622 5623 5625 5627 5628 5631 5632 5633 5633 5633 5631 5631 5630 5629 5627 5626 5625
5485 5487 5495 5496 5497 5496 5495 5495 5504 5503 5515 5517 5531 5551 5563 5577 5580 5585 5589 5593 5596 5600 5604 5606 5608 5610 5611 5613 5614 5616 5618 5619 5620 5622 5623 5622 5622 5621 5620 5619 5618 5616 5615 5614
5484 5485 5493 5496 5496 5495 5496 5501 5500 5499 5506 5515 5532 5543 5551 5562 5568 5574 5578 5582 5586 5591 5594 5596 5597 5599 5601 5603 5605 5607 5608 5609 5610 5610 5611 5611 5610 5609 5608 5607 5605 5604 5603 5602
5487 5486 5489 5493 5492 5493 5495 5498 5503 5504 5509 5510 5519 5533 5555 5559 5564 5567 5571 5574 5577 5580 5583 5585 5586 5588 5590 5591 5593 5595 5596 5597 5598 5598 5598 5598 5598 5597 5596 5595 5593 5592 5591 5589
5488 5489 5485 5493 5501 5505 5504 5505 5504 5498 5504 5513 5514 5524 5552 5553 5556 5559 5561 5565 5567 5570 5572 5575 5576 5577 5579 5580 5581 5583 5585 5585 5586 5586 5586 5585 5585 5584 5584 5582 5581 5580 5578 5577
5491 5490 5486 5492 5495 5499 5501 5505 5508 5506 5501 5504 5508 5519 5544 5544 5546 5550 5551 5554 5557 5560 5562 5564 5566 5568 5569 5570 5571 5573 5574 5575 5575 5575 5574 5573 5572 5571 5571 5569 5568 5567 5566 5564
5494 5491 5491 5495 5501 5501 5501 5504 5506 5503 5496 5502 5511 5519 5531 5534 5537 5540 5542 5546 5548 5551 5554 5556 5557 5559 5560 5561 5562 5563 5564 5564 5564 5564 5563 5561 5560 5559 5558 5557 5556 5554 5553 5551
5492 5493 5499 5502 5506 5506 5505 5506 5507 5504 5503 5501 5511 5517 5524 5527 5529 5532 5535 5539 5542 5545 5548 5550 5550 5551 5552 5553 5554 5554 5554 5554 5554 5553 5551 5550 5549 5548 5546 5545 5543 5542 5540 5538
5490 5492 5498 5502 5508 5508 5506 5507 5506 5504 5504 5505 5508 5512 5521 5523 5525 5525 5528 5532 5536 5539 5542 5544 5545 5545 5545 5545 5546 5545 5545 5545 5544 5542 5541 5539 5538 5536 5534 5533 5531 5529 5527 5526
5484 5489 5493 5497 5507 5505 5499 5504 5503 5504 5505 5504 5503 5508 5515 5515 5517 5519 5522 5526 5529 5532 5534 5536 5536 5537 5538 5539 5539 5537 5537 5536 5534 5532 5531 5529 5527 5525 5523 5522 5520 5518 5516 5514
5477 5483 5487 5491 5497 5490 5498 5505 5505 5503 5502 5503 5503 5505 5508 5509 5511 5514 5516 5518 5520 5523 5525 5527 5528 5529 5530 5531 5531 5530 5529 5527 5524 5522 5521 5519 5517 5515 5513 5511 5508 5506 5504 5502
5477 5478 5481 5485 5487 5493 5500 5498 5496 5494 5493 5492 5493 5497 5500 5504 5507 5506 5508 5510 5511 5513 5515 5516 5518 5520 5522 5523 5522 5521 5520 5518 5516 5514 5513 5511 5508 5506 5503 5500 5498 5495 5493 5491
5479 5475 5473 5480 5481 5479 5486 5490 5492 5489 5484 5481 5484 5486 5489 5493 5493 5492 5496 5499 5501 5503 5505 5506 5508 5511 5512 5512 5513 5511 5510 5508 5507 5506 5504 5502 5499 5497 5494 5491 5488 5485 5483 5480
5474 5473 5471 5473 5474 5475 5477 5482 5485 5476 5469 5472 5474 5476 5478 5477 5475 5479 5485 5488 5490 5492 5495 5497 5498 5498 5500 5501 5502 5501 5500 5498 5498 5496 5494 5492 5490 5487 5485 5481 5479 5476 5473 5471
5471 5469 5467 5467 5467 5463 5468 5471 5463 5458 5461 5462 5463 5464 5466 5469 5471 5473 5476 5478 5479 5481 5483 5485 5486 5487 5488 5490 5490 5489 5488 5488 5487 5486 5484 5482 5480 5478 5476 5472 5469 5467 5464 5461
5468 5463 5460 5460 5460 5460 5458 5453 5451 5451 5451 5451 5453 5455 5458 5461 5462 5464 5467 5468 5470 5471 5472 5473 5474 5475 5477 5478 5479 5477 5477 5477 5477 5475 5474 5472 5471 5468 5466 5464 5461 5458 5456 5454
5461 5460 5456 5455 5457 5453 5450 5446 5444 5442 5441 5442 5443 5446 5448 5450 5452 5455 5458 5459 5460 5461 5462 5463 5464 5465 5465 5467 5468 5468 5468 5468 5467 5466 5464 5463 5462 5460 5458 5456 5454 5451 5449 5447
5450 5449 5446 5446 5445 5445 5443 5437 5434 5434 5434 5434 5435 5437 5439 5441 5444 5446 5448 5450 5451 5452 5452 5453 5454 5455 5456 5457 5458 5458 5458 5459 5458 5457 5456 5456 5454 5452 5450 5448 5447 5446 5445 5443
5441 5437 5433 5432 5430 5427 5428 5427 5427 5426 5426 5425 5426 5429 5431 5432 5435 5438 5440 5441 5442 5443 5443 5444 5445 5446 5447 5448 5448 5449 5449 5450 5450 5449 5448 5447 5446 5445 5443 5441 5440 5440 5438 5437